Regional Weather Roundup
Issued by NWS Green Bay, WI

Home | Current Version | Previous Version | Graphics & Text | Print | Product List | Glossary Off
Versions: 1 2 3 4 5 6 7 8 9 10 11 12 13 14 15 16 17 18 19 20 21 22 23 24 25 26 27 28 29 30 31 32 33 34 35 36 37 38 39 40 41 42 43 44 45 46 47 48 49 50

000
ASUS43 KGRB 152359
RWRGRB

NORTH-CENTRAL AND NORTHEAST WISCONSIN REGIONAL WEATHER ROUNDUP
NATIONAL WEATHER SERVICE GREEN BAY WI
700 PM CDT TUE APR 15 2014

WIZ005-009-010>012-018-019-160100-
NORTH CENTRAL WISCONSIN

CITY           SKY/WX    TMP DP  RH WIND       PRES   REMARKS
IRONWOOD       CLEAR     27   1  33 CALM      30.02S
MANITOWISH WTR NOT AVBL
ARBOR VITAE    NOT AVBL
EAGLE RIVER    NOT AVBL
LAND O LAKES   NOT AVBL
RHINELANDER    CLEAR     26   4  38 W9        30.03R
PHILLIPS       NOT AVBL
ANTIGO         NOT AVBL
TOMAHAWK       NOT AVBL
MERRILL        NOT AVBL
$$

WIZ013-073-160100-
NORTHEAST WISCONSIN

CITY           SKY/WX    TMP DP  RH WIND       PRES   REMARKS
IRON MOUNTAIN  MOCLDY    27  11  51 CALM      30.04R
MARINETTE      MOCLDY    28  18  64 CALM      30.09R
$$

WIZ017-030-035>037-045-160100-
CENTRAL WISCONSIN

CITY           SKY/WX    TMP DP  RH WIND       PRES   REMARKS
MEDFORD        NOT AVBL
WAUSAU         CLEAR     28   9  44 W8        30.06R
MOSINEE        PTCLDY    27  12  54 W6        30.08R
MARSHFIELD     CLEAR     31   9  39 W6        30.06R
WISC RAPIDS    MOCLDY    31  11  43 SW7       30.10R
STEVENS POINT  NOT AVBL
WAUPACA        NOT AVBL
SHAWANO        NOT AVBL
CLINTONVILLE   NOT AVBL
$$

WIZ038-039-048-051-160100-
FOX VALLEY

CITY           SKY/WX    TMP DP  RH WIND       PRES   REMARKS
NWS GREEN BAY  CLOUDY    31  15  52 W10       30.12R
APPLETON       MOCLDY    30  14  51 W12       30.11R
OSHKOSH        MOCLDY    31  15  52 W6        30.11S
FOND DU LAC    PTCLDY    32  16  51 NW7       30.12R
$$

WIZ022-050-052-160100-
EAST CENTRAL WISCONSIN

CITY           SKY/WX    TMP DP  RH WIND       PRES   REMARKS
STURGEON BAY   MOCLDY    28  14  54 W8G16     30.10R
MANITOWOC      NOT AVBL
SHEBOYGAN      FLURRIES  31  18  58 W6        30.13R
$$

LMZ563-521-522-541>543-160100-
LAKESHORE

STATION/POSITION TIME  TEMP    WIND        PRES    VSBY  WAVE
                       AIR SEA DIR/SP/G                  HT/PER
                 (UTC) (F)     (DEG/KT/KT) (MB)    (MI)  (FT/S)
SHEBOYGAN LKSHOR 2300   33     280/ 10/ 12 1021.3R
KEWAUNEE LKSHORE 2300   31     260/ 10/ 13 1020.1R
NORTHPORT PIER   2300   29     200/  2/  6 1019.3R
SISTER BAY LKSHO 2300             CALM       N/A
MENOMINEE LKSHOR 2300   29     320/  8/ 11 1019.5R
$$



USA.gov is the U.S. government's official web portal to all federal, state and local government web resources and services.